Other Public Products
Issued by NWS Grand Forks, ND

Home | Current Version | Previous Version | Text Only | Print | Product List | Glossary On
Versions: 1 2 3 4 5 6 7 8 9 10 11 12 13 14 15 16 17 18 19 20 21 22 23 24 25 26 27 28 29 30 31 32 33 34 35 36 37 38 39 40 41 42 43 44 45 46 47 48 49 50
000
FPUS83 KFGF 231431
OPUFGF
PRAIRIE TO PINES WEATHER ROUNDUP
NATIONAL WEATHER SERVICE EASTERN NORTH DAKOTA/GRAND FORKS ND
900 AM CDT SUN APR 23 2017

 **SATELLITE DATA USED TO AUGMENT SKY COVER AT AUTOMATED STATIONS**
 *****  WEATHER ACROSS EASTERN NORTH DAKOTA  *****

CITY           SKY/WX    TMP DP  RH WIND       PRES   REMARKS
GRAND FORKS    CLOUDY    34  25  69 E16       30.21S WCI  24
GRAND FORKS AF FAIR      32  23  70 E15       30.21S WCI  22
GRAND CITY NWS NOT AVBL
BUXTON           N/A     31  31  99 E8          N/A  WCI  24
DEVILS LAKE    LGT SNOW  28  25  86 E17       30.17F FOG     WCI  16
FARGO          CLOUDY    35  31  85 E17       30.15S WCI  25
WAHPETON ARPT  CLOUDY    41  34  75 E15       30.11S
$$

 *****  WEATHER ACROSS CENTRAL AND WESTERN NORTH DAKOTA  *****

CITY           SKY/WX    TMP DP  RH WIND       PRES   REMARKS
JAMESTOWN      CLOUDY    30  27  88 E15       30.12S WCI  19
BISMARCK       CLOUDY    33  28  81 E20G30    30.06F WCI  21
MINOT          FLURRIES  28  23  81 E15       30.13S WCI  16
MINOT AFB      CLOUDY    29  19  66 E20       30.12F WCI  16
GARRISON         N/A     27  25  92 E21G31    30.07F WCI  13
WILLISTON      CLOUDY    33  25  72 E17G23    30.04F WCI  22
DICKINSON      CLOUDY    30  28  92 E20       29.94S WCI  17
HETTINGER      FOG       32  30  92 E21       29.91F VSB 1/2 WCI  20
$$

 *****  OTHER OBSERVATIONS NORTHEAST NORTH DAKOTA  *****

CITY           SKY/WX    TMP DP  RH WIND       PRES   REMARKS
WALHALLA       NOT AVBL
LANGDON        PTSUNNY   30  16  55 E15G22    30.20S WCI  19
CAVALIER       FAIR      32  18  55 E12       30.25S WCI  23
GRAFTON        FAIR      32  19  59 E18       30.26R WCI  20
CANDO          NOT AVBL
FORT TOTTEN      N/A     28  22  78 E8        29.95S WCI  20
ROLLA          PTSUNNY   28  14  54 E15G23    30.18F WCI  17
RUGBY          NOT AVBL
 ***** THE ABOVE OBSERVATIONS ARE NON NWS ARE NOT QUALITY
        CONTROLLED AND MAY MIS-REPORT RAIN FOR SNOW...
$$

 *****  OTHER OBSERVATIONS SOUTHEAST NORTH DAKOTA *****

CITY           SKY/WX    TMP DP  RH WIND       PRES   REMARKS
COOPERSTOWN    CLOUDY    28  27  93 NE17G23   30.16S WCI  16
VALLEY CITY    CLOUDY    30  30 100 NE17G23   30.14F WCI  18
OAKES          NOT AVBL
GWINNER        CLOUDY    37  36  93 MISG      30.10S
SHEYENNE NWR     N/A     37  33  86 NE10      29.95S
BUFFALO          N/A     32  29  92 S13         N/A  WCI  22
WYNDMERE         N/A     43  37  81 E15         N/A
 ***** THE ABOVE OBSERVATIONS ARE NON NWS ARE NOT QUALITY
       CONTROLLED AND MAY MIS-REPORT RAIN FOR SNOW...
$$

  *****  WEATHER ACROSS NORTHERN MINNESOTA  *****

CITY           SKY/WX    TMP DP  RH WIND       PRES   REMARKS
FLAG ISLAND    FAIR      28   9  43 NE8       30.27S WCI  20
WARROAD        FAIR      30  16  55 E15       30.26F WCI  19
ROSEAU         FAIR      34  18  51 E15       30.25F WCI  24
HALLOCK        FAIR      34  16  47 E14G20    30.25R WCI  24
THF RVR FALLS  FAIR      31  23  72 E16       30.21F WCI  20
HALSTAD          N/A     31  28  88 E17         N/A  WCI  20
FOSSTON        FAIR      30  23  74 NE10G17   30.18R WCI  21
BAUDETTE       FAIR      29  11  47 E14       30.25F WCI  18
WASKISH        CLOUDY    30  25  80 NE15      30.22F WCI  19
CROOKSTON      FAIR      34  25  69 E14G23    30.20F WCI  24
$$
  *****  WEATHER ACROSS CENTRAL AND WEST MINNESOTA  *****

CITY           SKY/WX    TMP DP  RH WIND       PRES   REMARKS
BEMIDJI        CLOUDY    32  25  76 E13       30.17F WCI  22
PARK RAPIDS    LGT SNOW  32  27  81 NE12      30.14F WCI  23
WADENA         CLOUDY    36  34  93 E12G18    30.12F
DETROIT LAKES  CLOUDY    34  32  93 E15       30.13F WCI  24
MOORHEAD       CLOUDY    36  30  80 E14       30.15F
FERGUS FALLS   PTSUNNY   39  34  81 E13G22    30.10S
ELBOW LAKE     FAIR      43  36  78 SE21G26   30.08F
MORRIS MN      FAIR      48  39  71 E21       30.06S
STAPLES        CLOUDY    36  32  87 E9G20     30.14F
WHEATON        CLOUDY    45  37  76 E14G20    30.09F
$$
  *****  WEATHER ELSEWHERE ACROSS MINNESOTA  *****

CITY           SKY/WX    TMP DP  RH WIND       PRES   REMARKS
DULUTH         LGT SNOW  33  32  96 NE8       30.18R FOG
INTRNTL FALLS  FAIR      29  11  47 NE9       30.25R WCI  20
ELY            FAIR      30  19  64 N7        30.21S WCI  23
CLOQUET        LGT SNOW  32  30  93 NE6       30.18S
BRAINERD       CLOUDY    36  32  85 E13       30.17R
HIBBING        CLOUDY    30  24  78 NE9       30.20S WCI  22
ALEXANDRIA     CLOUDY    42  37  82 E20G26    30.10S
SAINT CLOUD    CLOUDY    46  38  73 E9G22     30.12F
MINNEAPOLIS    FAIR      52  40  63 NE8G16    30.10F
$$

  *****  WEATHER ACROSS SOUTH DAKOTA  *****

CITY           SKY/WX    TMP DP  RH WIND       PRES   REMARKS
SIOUX FALLS    FAIR      55  37  50 SW9       30.07F
BROOKINGS      FAIR      52  37  56 S9        30.04F
WATERTOWN      FAIR      45  38  76 E7        30.03F
HURON          FAIR      48  37  65 CALM      30.00F
SISSETON         N/A     44  39  82 NE10      30.07F
ABERDEEN       CLOUDY    39  35  86 NE18      30.04F
MITCHELL       FAIR      56  36  47 S12       30.02F
PIERRE         FAIR      50  35  56 SE9       29.92F
MOBRIDGE       FAIR      39  33  79 E22G31    29.93F
RAPID CITY     FAIR      48  35  60 S12       29.84S
$$

  *****  SOME WEATHER IN NEARBY STATES *****

CITY           SKY/WX    TMP DP  RH WIND       PRES   REMARKS
GLASGOW MT     CLOUDY    35  30  82 E28       29.90F WCI  22
GREAT FALLS MT CLOUDY    41  39  93 CALM      29.79S
CHEYENNE WY    FAIR      43  32  65 CALM      29.99S
SCOTTSBLUFF NE FAIR      47  34  60 SE14      29.94F
OMAHA NE       FAIR      51  40  65 S6        30.16F
DES MOINES IA  FAIR      56  37  49 SW6       30.16F
DAVENPORT IA   FAIR      56  34  43 W6        30.16F
CHICAGO IL     FAIR      55  26  32 W3        30.14F
EAU CLAIRE WI  FAIR      51  39  63 NE14      30.09S
LA CROSSE WI   FAIR      56  40  55 SE8       30.10S
$$

  *****  SOME NATIONAL WEATHER *****

CITY           SKY/WX    TMP DP  RH WIND       PRES   REMARKS
LA GUARDIA NY  FAIR      54  35  48 NE10      30.12F
RALEIGH NC     LGT RAIN  53  51  93 NE10      30.03R FOG
ATLANTA GA     CLOUDY    63  60  90 SE6       29.85R
NEW ORLEANS LA CLOUDY    63  58  83 W8        29.93S
OKLAHOMA CITY  FAIR      52  40  63 N9        30.20R
ALBUQUERQUE NM FAIR      47  29  49 CALM      30.23R
SALT LAKE CITY FAIR      53  35  50 SE6       29.86S
LOS ANGELES CA FAIR      61  54  77 SW3       29.86R
BOISE ID       PTSUNNY   49  41  74 W5        29.85R
SEATTLE WA     CLOUDY    47  44  90 S6        29.91F
$$

*** WEATHER ACROSS MANITOBA...SASKATCHEWAN AND ONTARIO ***
                ***ONTARIO***

CITY           SKY/WX    TMP DP  RH WIND       PRES   REMARKS
GERALDTON      PTSUNNY   21   9  58 N10G18    30.21R WCI  10
THUNDER BAY    PTSUNNY   34  18  51 N13       30.24S WCI  25
SIOUX LOOKOUT  PTSUNNY   23   3  42 N6        30.26F WCI  16
TORONTO        MOSUNNY   55  36  47 SW9       30.09F
BIG TROUT LK   MOSUNNY    7   0  72 NW12      30.27F WCI  -9
PICKLE LAKE    PTSUNNY   14   3  62 NW8       30.24S WCI   3
DRYDEN         MOSUNNY   25   9  50 NE10      30.25F WCI  15
KENORA         PTSUNNY   27   7  43 NE10      30.26S WCI  17
$$
                *** MANITOBA***

CITY           SKY/WX    TMP DP  RH WIND       PRES   REMARKS
BRANDON        CLOUDY    28  14  54 SE12      30.22F WCI  18
DAUPHIN        SUNNY     30  21  69 CALM      30.24S
ISLAND LAKE    MOSUNNY   12   1  62 W7        30.32S WCI   2
PILOT MOUND      N/A     28  16  59 E13         N/A  WCI  18
THE PAS        MOSUNNY   21   5  49 NE5       30.31R WCI  15
THOMPSON       MOSUNNY    9  -6  52 W5        30.33S WCI   0
WINNIPEG       PTSUNNY   30  16  55 SE10      30.28S WCI  21
LYNN LAKE      CLOUDY     5  -4  66 CALM      30.30R
CHURCHILL      MOSUNNY   -2  -8  78 NW14      30.32S WCI -21
GILLAM         MOSUNNY    3  -6  66 W9        30.34S WCI -11
$$
                ***SASKATCHEWAN***

CITY           SKY/WX    TMP DP  RH WIND       PRES   REMARKS
ESTEVAN        PTSUNNY   28  18  64 SE17G31   30.11S WCI  16
KINDERSLEY     CLOUDY    34  30  86 E22       29.95S WCI  22
LLOYDMINSTER   CLOUDY    30  25  80 E15       30.02F WCI  19
PRINCE ALBERT  CLOUDY    27  19  74 E10       30.18S WCI  17
REGINA         CLOUDY    32  19  59 SE21G28   30.08F WCI  20
YORKTON        CLOUDY    30  19  64 S12G17    30.18S WC



USA.gov is the U.S. government's official web portal to all federal, state and local government web resources and services.